Location: ?????? ??????
(44.3742°N, 135.2221°E)
Time: 14:36:04
(UTC+00:00)

ADEOS II - Pass Details

Date: 19 May 2025
Orbit: 793 x 796 km, 98.7° (Epoch: 19 June)

Event Time Altitude Azimuth Distance (km) Brightness Sun altitude
Rises 16:58:11 0° 22° (NNE) 3,306 6.8 -19.9°
Reaches altitude 10° 17:00:43 10° 31° (NNE) 2,371 5.8 -19.6°
Maximum altitude 17:05:31 36° 97° (E) 1,242 3.3 -19.2°
Enters shadow 17:09:16 15° 157° (SSE) 2,006 3.8 -18.8°
